Location: Loudonville
(42.7048°N, 73.7548°W)
Time: 03:34:05
(UTC+00:00)

Daily predictions for brighter satellites

Satellite Brightness Start Highest point End
(mag) Time Altitude Azimuth Time Altitude Azimuth Time Altitude Azimuth
Cosmos 1536 Rocket 4.1 00:01:11 10° N 00:05:22 39° ENE 00:08:22 17° SE
Cosmos 372 Rocket 4.0 00:02:10 10° SSW 00:07:25 88° ESE 00:12:40 10° NNE
FREGAT/IRIS 4.3 00:08:33 16° NE 00:08:33 16° NE 00:09:29 10° NNE
Cosmos 2263 Rocket 3.7 00:04:04 10° SW 00:09:12 38° WNW 00:14:24 10° N
Cosmos 1464 Rocket 3.9 00:03:42 10° S 00:09:47 76° E 00:15:58 10° N
Cosmos 1844 4.1 00:05:13 10° S 00:10:29 40° ESE 00:15:44 10° NE
Cosmos 1025 Rocket 3.1 00:06:14 10° N 00:10:35 59° E 00:14:52 10° SSE
USA 186 2.1 00:11:48 32° ESE 00:12:43 42° ENE 00:15:48 10° N
BREEZE-M DEB (TANK) 3.4 00:10:04 10° SW 00:13:05 67° SE 00:22:20 10° NE
Cosmos 1844 Rocket 2.7 00:09:50 10° S 00:15:13 55° ESE 00:20:41 10° NNE
Cosmos 1867 3.7 00:10:40 10° NW 00:16:08 76° WSW 00:21:02 13° SSE
Cosmos 1626 4.4 00:17:33 10° NE 00:17:55 11° NE 00:17:55 11° NE
ISS -2.6 00:17:20 10° W 00:20:33 42° NNW 00:22:47 17° NE
Cosmos 2151 Rocket 3.5 00:18:08 10° S 00:22:32 72° E 00:27:02 10° NNE
USA 234 3.7 00:17:11 10° ENE 00:23:12 38° SE 00:29:11 10° SSW
Lacrosse 5 rocket 4.1 00:24:29 10° NW 00:26:37 13° N 00:28:47 10° NNE
Cosmos 2150 Rocket 4.0 00:21:43 10° SSW 00:27:04 82° ESE 00:32:33 10° NNE
MetOp-A 4.3 00:26:18 25° SE 00:29:18 53° ENE 00:34:30 10° N
Cosmos 1125 Rocket 3.5 00:26:12 10° S 00:31:24 60° ESE 00:36:38 10° NNE
MOS 1 4.3 00:27:58 20° SSE 00:31:52 63° ENE 00:37:30 10° N
CZ-2C R/B 2.5 00:29:47 10° WSW 00:32:33 21° S 00:32:43 21° S
DMSP B5D2-2 4.0 00:31:11 10° NNE 00:36:26 60° E 00:41:39 10° S
NOSS 3-2 (C) 4.2 00:30:48 10° NNW 00:38:13 58° NE 00:42:21 31° ESE
Exosat Rocket 3.5 00:33:42 10° S 00:39:24 63° ESE 00:44:20 10° NNE
Cosmos 1833 Rocket 4.3 00:35:51 10° N 00:39:37 18° NE 00:40:10 17° NE
NOSS 3-4 (A) 3.7 00:35:44 10° S 00:41:05 38° ESE 00:42:16 35° E
NOSS 3-4 (C) 3.7 00:35:52 10° S 00:41:11 37° ESE 00:41:56 36° E
Cosmos 1674 2.5 00:50:10 10° N 00:54:01 88° NE 00:54:01 88° NE
Meteor 1-15 Rocket 4.2 00:48:41 10° S 00:54:18 88° W 01:00:03 10° N
Cosmos 1805 3.6 00:57:53 55° NNE 00:57:53 55° NNE 01:01:01 10° N
Resurs 01 Rocket 2.6 00:59:15 34° NE 00:59:15 34° NE 01:02:20 10° N
Abrixas rocket 4.1 00:55:40 10° NW 00:57:14 23° NNW 00:57:14 23° NNW
H-2A R/B 3.8 00:54:38 10° SSW 00:58:54 29° W 01:03:17 10° NW
Cosmos 1048 Rocket 4.3 00:55:28 10° NNW 01:00:45 68° WSW 01:03:09 33° S
Nadezhda 4 Rocket 4.3 00:56:06 10° NNW 01:02:10 66° W 01:07:55 11° S
ATLAS 2AS CENTAUR R/B 3.0 00:55:58 10° SSW 01:03:37 56° ESE 01:11:19 10° NE
BREEZE-M TANK 2.8 00:56:09 10° WSW 01:04:34 78° NNW 01:05:15 60° NE
CENTAUR R/B 3.1 01:02:50 10° NW 01:11:02 79° NE 01:14:15 44° SE
ARIANE 5 R/B 4.4 01:17:01 21° NNE 01:17:01 21° NNE 01:18:46 10° N
Cosmos 1269 Rocket 4.2 01:10:33 10° NNW 01:15:25 58° NE 01:15:25 58° NE
Okean 1 Rocket 3.4 01:16:18 51° SW 01:17:12 64° W 01:21:41 10° N
ATLAS 3B R/B 3.5 01:12:54 10° NNW 01:19:10 36° NE 01:20:03 35° ENE
Ariane Rocket 4.1 01:16:43 21° SSW 01:19:45 42° W 01:24:34 10° NNW
OBJECT-B 3.2 01:23:19 21° NNW 01:23:19 21° NNW 01:24:36 10° NNW
Cosmos 2082 Rocket 3.8 01:20:13 10° N 01:23:32 21° NE 01:23:32 21° NE
Cosmos 494 Rocket 4.3 01:21:01 10° NNW 01:26:13 62° WSW 01:26:49 57° SW
USA 238 DEB 4.2 01:19:31 10° NW 01:26:41 62° WSW 01:29:18 41° S
USA 238 4.1 01:19:38 10° NW 01:26:47 62° WSW 01:29:22 41° S
Meteor 2-5 Rocket 3.8 01:21:21 10° NNW 01:27:00 77° W 01:27:52 64° SSW
Resurs 1-3 4.3 01:32:05 52° WNW 01:32:05 52° WNW 01:35:44 10° NNW
Meteor 1-22 Rocket 4.3 01:32:16 70° SSW 01:33:00 85° W 01:39:05 10° N
CZ-2C R/B 4.0 01:28:21 10° N 01:33:29 39° WNW 01:38:38 10° SW
COSMOS 2406 3.7 01:33:41 10° NNW 01:38:12 50° NNE 01:38:12 50° NNE
Cosmos 1634 Rocket 4.1 01:37:16 38° SSW 01:39:41 69° W 01:45:53 10° N
SPOT 3 Rocket 4.0 01:44:55 55° W 01:44:55 55° W 01:49:48 10° NNW
Meteor 1-24 Rocket 3.9 01:39:17 10° NNW 01:44:32 70° WNW 01:44:32 70° WNW
ISS -0.2 01:55:32 10° NW 01:55:46 11° NW 01:55:46 11° NW
Lacrosse 4 Rocket 4.3 01:59:38 10° N 01:59:57 12° N 01:59:57 12° N
USA 234 3.4 02:04:41 49° NNE 02:06:26 67° NW 02:12:54 10° WSW
Lacrosse 5 rocket 4.2 02:04:36 10° NNW 02:06:10 15° N 02:06:10 15° N
Cosmos 1833 Rocket 4.0 02:18:35 10° NNW 02:21:52 36° NNW 02:21:52 36° NNW
Resurs 01 Rocket 4.4 02:36:49 15° WNW 02:36:49 15° WNW 02:38:07 10° NW
ATLAS 2AS CENTAUR R/B 4.0 02:47:26 10° WSW 02:54:54 43° NW 03:02:20 10° NNE
Cosmos 2082 Rocket 4.4 03:03:31 10° NNW 03:05:22 21° NW 03:05:22 21° NW
ATLAS 3B R/B 4.0 03:03:25 10° NW 03:07:18 35° WNW 03:07:18 35° WNW
SL-16 R/B 4.4 06:30:27 22° N 06:30:27 22° N 06:32:27 10° N
Cosmos 1697 Rocket 4.1 07:06:50 33° NE 07:06:50 33° NE 07:09:58 10° NNE
Cosmos 1980 Rocket 3.7 07:10:59 32° ENE 07:10:59 32° ENE 07:14:50 10° NE
USA 234 4.4 07:06:28 10° E 07:12:24 39° NNE 07:17:05 16° NW
ADEOS II 3.4 07:25:18 10° NNE 07:28:10 34° N 07:28:10 34° N
ARIANE 5 R/B 3.6 07:28:41 10° NNE 07:32:22 41° NE 07:32:22 41° NE
CZ-3B R/B 4.2 07:37:59 23° NNE 07:37:59 23° NNE 07:40:58 10° NE
IDEFIX/ARIANE 42P 3.5 07:34:26 10° NNE 07:39:15 45° E 07:39:15 45° E
Nadezhda 3 Rocket 4.2 07:41:12 65° N 07:41:12 65° N 07:46:23 10° N
ASTEX 1 4.5 07:35:31 10° NNE 07:39:48 42° ENE 07:39:48 42° ENE
SJ 16-02 3.6 07:47:07 10° N 07:50:43 24° ENE 07:54:16 10° ESE
Cosmos 44 4.3 07:54:54 41° NE 07:54:54 41° NE 07:58:02 10° NE
Cosmos 1238 Rocket 4.3 07:50:21 10° N 07:56:54 63° E 08:00:20 26° SSE
H-2A R/B 4.0 07:56:03 10° SE 07:59:48 29° ENE 08:03:39 10° N
Lacrosse 5 2.8 08:06:13 40° NNW 08:06:13 40° NNW 08:10:20 10° NE
CZ-2D R/B 4.2 08:02:46 10° NNW 08:04:03 14° NNW 08:04:03 14° NNW
Cosmos 2278 3.7 08:08:13 70° NW 08:08:13 70° NW 08:13:35 10° NNE
Resurs 1-4 Rocket 4.3 08:09:15 10° NNW 08:10:13 13° NNW 08:10:13 13° NNW
Cosmos 2369 4.3 08:17:21 41° NW 08:17:21 41° NW 08:22:15 10° NNE
X-37B 3.1 08:18:53 23° ENE 08:18:53 23° ENE 08:20:16 10° E
NOSS 3-3 (A) 3.8 08:19:03 59° SSW 08:20:10 78° ESE 08:26:35 10° NE
NOSS 3-3 (C) 3.8 08:19:13 60° S 08:20:17 77° ESE 08:26:39 10° NE
USA 267 3.4 08:14:29 10° NE 08:20:54 60° NNW 08:22:28 48° W
Cosmos 1339 Rocket 4.4 08:29:39 32° S 08:32:50 88° W 08:39:05 10° N
Spot 4 Rocket 3.9 08:29:30 10° N 08:34:36 64° WNW 08:35:06 61° WSW
ATLAS 2AS CENTAUR R/B 4.4 08:29:22 10° NNW 08:36:10 34° NE 08:42:29 10° ESE
Cosmos 972 4.4 08:36:49 56° WNW 08:36:52 56° WNW 08:41:41 10° N
SL-8 R/B 3.6 08:39:54 53° WNW 08:41:02 85° NNE 08:45:48 10° ESE
ADEOS Rocket 4.0 08:36:06 10° SE 08:42:39 51° ENE 08:48:33 10° N
Cosmos 921 Rocket 2.8 08:43:18 70° WNW 08:43:18 70° WNW 08:47:27 10° NNE
Cosmos 2360 Rocket 4.2 08:39:07 10° SSE 08:43:44 26° ESE 08:48:21 10° NE
Cosmos 1898 Rocket 4.2 08:38:57 10° NNW 08:44:07 54° ENE 08:49:17 10° SE
MSX 3.7 08:38:47 10° N 08:44:33 72° WNW 08:47:05 35° SSW
CZ-4C R/B 3.1 08:47:18 64° NNW 08:47:18 64° NNW 08:50:24 10° NNW
Cosmos 1812 2.5 08:46:42 79° SW 08:46:53 83° W 08:50:45 10° N
Cosmos 1500 3.2 08:44:05 10° NNW 08:47:33 66° NW 08:47:33 66° NW
IRIDIUM 104 4.4 08:42:46 10° N 08:48:01 80° E 08:53:14 10° S
Cosmos 1697 Rocket 4.0 08:48:35 22° NW 08:48:50 22° NW 08:53:11 10° N
USA 305 4.4 08:51:58 22° NW 08:52:53 24° NNW 08:56:23 10° NE
Cosmos 1666 3.4 08:49:45 10° N 08:53:31 54° E 08:57:13 10° SSE
Cosmos 1707 Rocket 4.1 08:49:22 10° S 08:53:34 57° E 08:57:50 10° NNE
Cosmos 1980 Rocket 2.9 08:52:47 33° WNW 08:53:40 35° WNW 08:58:52 10° N
USA 234 3.1 08:48:31 10° SE 08:55:04 82° SW 09:01:38 10° NW
USA 306 4.5 08:56:00 21° NW 08:57:07 24° NNW 09:00:36 10° NE
IRIDIUM 114 4.2 08:51:55 10° N 08:57:10 85° W 09:02:23 10° S
BREEZE-M DEB (TANK) 3.3 08:55:57 28° SW 09:00:07 70° SSE 09:03:29 10° ENE
Cosmos 2322 Rocket 2.5 08:55:32 14° S 09:00:23 68° ESE 09:06:03 10° NNE
Cosmos 2263 Rocket 2.1 08:55:57 10° NNW 09:01:35 70° WSW 09:07:13 10° SSE
BREEZE-M DEB (TANK) 3.1 09:01:04 41° NW 09:01:46 50° NNW 09:07:52 10° ENE
USA 32 4.2 08:57:40 10° N 09:02:55 73° E 09:08:10 10° S
IRIDIUM 103 4.2 09:01:06 10° N 09:06:18 70° W 09:11:28 10° S
ADEOS II 4.1 09:07:28 10° NW 09:09:07 12° NW 09:09:07 12° NW
SL-16 R/B 2.1 09:05:31 19° SSW 09:09:39 84° WNW 09:15:23 10° NNE
Cosmos 1937 Rocket 3.9 09:04:33 10° NNW 09:09:41 64° ENE 09:14:46 10° SSE
Cosmos 2228 Rocket 3.7 09:09:42 32° W 09:09:59 33° WNW 09:13:59 10° N
SL-4 R/B 2.4 09:08:18 31° SW 09:10:28 71° SE 09:15:14 10° ENE
FALCON 9 DEB 3.1 09:10:01 44° SW 09:10:58 74° SE 09:14:23 10° ENE
Cosmos 1733 Rocket 4.0 09:08:02 10° N 09:12:16 49° ENE 09:16:28 10° SSE
ARIANE 5 R/B 3.8 09:08:38 10° NNW 09:12:21 21° WNW 09:12:41 21° WNW
ADEOS 4.2 09:09:21 10° NNE 09:14:31 59° ESE 09:19:39 10° S
USA 276 4.2 09:13:50 16° NW 09:15:26 22° N 09:18:03 10° ENE
Meteor 1-4 Rocket 2.7 09:16:32 39° WSW 09:17:10 44° WNW 09:20:33 10° N
Cosmos 841 Rocket 4.0 09:12:14 10° S 09:17:20 59° ESE 09:22:31 10° NNE
Cosmos 44 Rocket 4.1 09:13:18 10° S 09:17:49 49° ESE 09:22:28 10° NE
Gbstr 26 Del rocket 4.4 09:09:47 10° WNW 09:17:54 87° SW 09:25:00 10° SE
Cosmos 2173 Rocket 4.4 09:11:34 10° N 09:17:55 71° E 09:24:16 10° SSE
IDEFIX/ARIANE 42P 3.7 09:14:35 10° N 09:18:48 25° WNW 09:20:03 23° W
CZ-2C R/B 2.5 09:13:53 10° N 09:19:00 70° WNW 09:24:09 10° SSW
Cosmos 1869 Rocket 3.9 09:15:17 10° NNW 09:19:21 41° W 09:23:24 10° SSW
Cosmos 2227 4.4 09:15:18 10° NW 09:20:39 45° WSW 09:25:57 10° S
CZ-2C R/B 3.9 09:18:36 10° NNW 09:21:40 24° WNW 09:21:45 24° WNW
Meteor 1-10 Rocket 4.5 09:17:09 15° SSW 09:21:48 51° WNW 09:27:31 10° N
ERBS 3.4 09:22:46 26° WNW 09:23:38 30° NW 09:26:40 10° NNE
Cosmos 1763 Rocket 3.6 09:21:34 15° SW 09:25:52 61° WNW 09:31:09 10° NNE
Cosmos 1862 Rocket 4.0 09:23:24 10° S 09:27:45 66° E 09:32:05 10° NNE
SJ-6F 4.4 09:24:28 10° NNE 09:28:35 89° ESE 09:32:39 10° SSW
SJ 16-02 2.0 09:25:23 10° NW 09:29:19 33° W 09:33:14 10° SSW
Intercosmos 25 4.5 09:26:30 10° SSE 09:30:38 44° E 09:33:49 10° NNE
PSLV R/B 3.9 09:27:28 10° N 09:31:26 42° WNW 09:34:43 14° SW
Cosmos 1743 4.1 09:29:06 10° N 09:32:45 42° ENE 09:36:22 10° SSE
Cosmos 967 Rocket 4.5 09:27:03 10° SW 09:33:25 80° NW 09:39:52 10° NNE
CZ-4B R/B 1.1 09:31:54 10° S 09:35:02 80° WSW 09:38:17 10° NNW
H-2A R/B 3.0 09:32:00 10° SSW 09:35:43 27° W 09:39:32 10° NW
DEBRIS 3.1 09:34:58 23° W 09:36:30 48° SSW 09:42:28 10° SE
Cosmos 1570 Rocket 4.0 09:34:19 10° SSW 09:39:37 89° WNW 09:45:00 10° NNE
PKM 4.0 09:37:17 10° NW 09:40:56 79° NE 09:45:03 10° SE
Cosmos 1689 Rocket 3.2 09:41:49 10° SSE 09:44:40 46° ENE 09:47:33 10° N
Cosmos 2016 Rocket 4.1 09:42:31 10° N 09:48:40 81° E 09:54:45 10° S
ERS-2 3.0 09:45:30 10° SSW 09:48:40 27° W 09:51:51 10° NW
Lacrosse 5 3.8 09:46:13 10° NW 09:49:39 18° NNW 09:53:05 10° NNE
Cosmos 2333 Rocket 3.9 09:45:01 10° S 09:50:15 37° ESE 09:55:30 10° NE
Cosmos 1000 Rocket 4.5 09:45:03 10° SSW 09:51:12 67° W 09:57:20 10° N
Okean 1 3.9 09:48:07 10° S 09:52:06 63° E 09:56:08 10° NNE
Cosmos 540 Rocket 3.5 09:47:26 10° SSW 09:52:34 68° WNW 09:57:44 10° NNE
CZ-4B R/B 3.6 09:49:17 10° NNE 09:52:51 50° E 09:56:20 10° S
Meteor 2-20 4.4 09:46:57 10° S 09:53:05 82° W 09:59:14 10° N
X-37B 0.6 09:51:10 14° WNW 09:53:49 65° SSW 09:56:59 10° ESE
CZ-4B R/B 4.1 09:50:18 10° N 09:54:40 84° WNW 09:59:07 10° SSW
Cosmos 2322 4.5 09:53:08 10° S 09:58:38 56° ESE 10:04:09 10° NNE
ALOS 2.2 09:54:13 10° N 09:58:52 69° WNW 10:03:30 10° SSW
Cosmos 1484 Rocket 2.9 09:55:06 10° N 09:59:02 58° WNW 10:02:58 10° SSW
COSMO-SKYMED 1 2.9 09:58:12 10° SSE 10:02:30 72° ENE 10:06:51 10° N
USA 267 4.5 09:57:41 10° NE 10:03:08 29° NNW 10:08:35 10° WNW
NOSS 3-4 (A) 3.9 09:56:39 10° NW 10:03:46 78° WSW 10:11:37 10° SSE
NOSS 3-4 (C) 3.9 09:56:45 10° NW 10:03:52 79° WSW 10:11:44 10° SSE
Cosmos 1536 3.8 10:03:02 10° NNW 10:06:31 27° W 10:09:59 10° SSW
Cosmos 1725 Rocket 4.0 10:02:17 10° N 10:08:31 86° W 10:14:41 10° S
Meteor 1-31 Rocket 2.9 10:06:52 10° N 10:10:35 51° WNW 10:14:19 10° SSW
Cosmos 1437 Rocket 2.7 10:10:18 10° SSW 10:14:01 59° WNW 10:17:50 10° N
Cosmos 2100 Rocket 4.5 10:08:57 10° NNW 10:14:50 41° W 10:20:41 10° SSW
Cosmos 1544 3.0 10:11:57 10° N 10:15:33 82° W 10:19:07 10° S
Cosmos 2333 4.5 10:10:40 10° SSW 10:16:25 79° ESE 10:22:14 10° NNE
USA 281 4.5 10:12:08 10° NE 10:18:25 46° ESE 10:24:40 10° S
